DLH6UA EDDF-LIMC

Flight info

Callsign DLH6UA
Flight time 0h 51m
Altitude 33000
Route ANEKI2L/18 ANEKI Y163 NATOR DCT TRA DCT RIPUS DCT GERSA DCT SOSON DCT DEGAD Z424 RIXUV RIXUV3E
Aircraft A321/M-SDE3FGHIRWY/LB1

Departure

Time 2026-04-14 14:58
Airport Frankfurt Main Airport (EDDF)

Arrival

Time 2026-04-14 15:49
Airport Milan Malpensa International Airport (LIMC)
Time Latitude Longitude Altitude Speed Heading
2026-04-14 14:40 50.03813 8.54587 347 ft 0 kts 160°
2026-04-14 14:43 50.03814 8.54587 347 ft 0 kts 160°
2026-04-14 14:52 50.03810 8.54590 347 ft 1 kts 160°
2026-04-14 14:53 50.03792 8.54600 354 ft 4 kts 160°
2026-04-14 14:53 50.03753 8.54618 350 ft 7 kts 172°
2026-04-14 14:53 50.03717 8.54558 350 ft 10 kts 249°
2026-04-14 14:53 50.03686 8.54428 351 ft 16 kts 250°
2026-04-14 14:54 50.03646 8.54255 345 ft 18 kts 249°
2026-04-14 14:54 50.03601 8.54070 350 ft 19 kts 249°
2026-04-14 14:54 50.03553 8.53866 341 ft 21 kts 249°
2026-04-14 14:54 50.03502 8.53652 337 ft 22 kts 250°
2026-04-14 14:55 50.03447 8.53426 334 ft 23 kts 250°
2026-04-14 14:55 50.03391 8.53197 337 ft 23 kts 249°
2026-04-14 14:55 50.03346 8.53008 333 ft 15 kts 250°
2026-04-14 14:55 50.03308 8.52850 333 ft 14 kts 250°
2026-04-14 14:56 50.03287 8.52762 332 ft 0 kts 249°
2026-04-14 14:56 50.03287 8.52761 332 ft 1 kts 249°
2026-04-14 14:56 50.03278 8.52728 333 ft 6 kts 246°
2026-04-14 14:57 50.03257 8.52666 331 ft 6 kts 240°
2026-04-14 14:57 50.03153 8.52589 335 ft 42 kts 186°
2026-04-14 14:57 50.02590 8.52599 335 ft 117 kts 179°
2026-04-14 14:57 50.01575 8.52616 359 ft 170 kts 178°
2026-04-14 14:58 50.00367 8.52611 957 ft 177 kts 181°
2026-04-14 14:58 49.99094 8.52611 1577 ft 193 kts 180°
2026-04-14 14:58 49.97681 8.52676 2058 ft 212 kts 176°
2026-04-14 14:58 49.96132 8.52804 2356 ft 232 kts 176°
2026-04-14 14:59 49.94496 8.52949 3049 ft 236 kts 176°
2026-04-14 14:59 49.92872 8.53090 3887 ft 238 kts 176°
2026-04-14 14:59 49.91209 8.53229 4716 ft 241 kts 176°
2026-04-14 14:59 49.89522 8.53359 5515 ft 245 kts 176°
2026-04-14 15:00 49.87807 8.53483 6306 ft 248 kts 176°
2026-04-14 15:00 49.86071 8.53606 7069 ft 251 kts 176°
2026-04-14 15:00 49.84322 8.53727 7851 ft 252 kts 176°
2026-04-14 15:00 49.82568 8.53849 8650 ft 252 kts 177°
2026-04-14 15:01 49.80814 8.53970 9505 ft 251 kts 178°
2026-04-14 15:01 49.79074 8.54087 10328 ft 250 kts 179°
2026-04-14 15:01 49.77321 8.54053 10885 ft 259 kts 188°
2026-04-14 15:01 49.75454 8.53682 11103 ft 281 kts 189°
2026-04-14 15:02 49.73441 8.53205 11274 ft 304 kts 190°
2026-04-14 15:02 49.71277 8.52668 11411 ft 326 kts 190°
2026-04-14 15:02 49.68985 8.52100 11791 ft 338 kts 190°
2026-04-14 15:02 49.66645 8.51525 12386 ft 343 kts 190°
2026-04-14 15:03 49.64275 8.50949 13015 ft 347 kts 190°
2026-04-14 15:03 49.61876 8.50374 13638 ft 351 kts 190°
2026-04-14 15:03 49.59448 8.49802 14226 ft 355 kts 190°
2026-04-14 15:03 49.56995 8.49229 14787 ft 358 kts 190°
2026-04-14 15:04 49.54514 8.48649 15359 ft 362 kts 190°
2026-04-14 15:04 49.52015 8.48062 15926 ft 365 kts 190°
2026-04-14 15:04 49.49522 8.47477 16488 ft 368 kts 190°
2026-04-14 15:04 49.46983 8.46880 17038 ft 371 kts 190°
2026-04-14 15:05 49.44417 8.46279 17593 ft 375 kts 189°
2026-04-14 15:05 49.41827 8.45676 18148 ft 378 kts 189°
2026-04-14 15:05 49.39219 8.45068 18658 ft 381 kts 189°
2026-04-14 15:05 49.36588 8.44452 19146 ft 384 kts 189°
2026-04-14 15:06 49.33942 8.43830 19631 ft 386 kts 190°
2026-04-14 15:06 49.31281 8.43206 20109 ft 388 kts 189°
2026-04-14 15:06 49.28603 8.42583 20589 ft 390 kts 189°
2026-04-14 15:06 49.25907 8.41958 21051 ft 393 kts 189°
2026-04-14 15:07 49.23189 8.41327 21517 ft 395 kts 189°
2026-04-14 15:07 49.20462 8.40696 21998 ft 397 kts 189°
2026-04-14 15:07 49.17724 8.40064 22452 ft 400 kts 189°
2026-04-14 15:07 49.14968 8.39428 22909 ft 402 kts 189°
2026-04-14 15:08 49.12198 8.38788 23391 ft 404 kts 189°
2026-04-14 15:08 49.09416 8.38147 23833 ft 406 kts 189°
2026-04-14 15:08 49.06615 8.37499 24213 ft 408 kts 190°
2026-04-14 15:08 49.03801 8.36847 24577 ft 410 kts 190°
2026-04-14 15:09 49.00971 8.36195 24939 ft 413 kts 189°
2026-04-14 15:09 48.98117 8.35538 25276 ft 416 kts 189°
2026-04-14 15:09 48.95251 8.34879 25618 ft 419 kts 189°
2026-04-14 15:09 48.92355 8.34213 25956 ft 422 kts 189°
2026-04-14 15:10 48.89446 8.33545 26290 ft 425 kts 189°
2026-04-14 15:10 48.86554 8.32880 26612 ft 427 kts 189°
2026-04-14 15:10 48.83600 8.32200 26939 ft 430 kts 189°
2026-04-14 15:10 48.80629 8.31518 27260 ft 433 kts 189°
2026-04-14 15:11 48.77640 8.30835 27568 ft 436 kts 189°
2026-04-14 15:11 48.74627 8.30148 27894 ft 439 kts 189°
2026-04-14 15:11 48.71594 8.29459 28214 ft 442 kts 189°
2026-04-14 15:11 48.68543 8.28769 28531 ft 445 kts 189°
2026-04-14 15:12 48.65473 8.28078 28846 ft 448 kts 189°
2026-04-14 15:12 48.62381 8.27380 29152 ft 450 kts 189°
2026-04-14 15:12 48.59275 8.26675 29455 ft 453 kts 189°
2026-04-14 15:12 48.56148 8.25966 29742 ft 456 kts 189°
2026-04-14 15:13 48.52999 8.25253 30025 ft 458 kts 189°
2026-04-14 15:13 48.49823 8.24759 30279 ft 462 kts 182°
2026-04-14 15:13 48.46607 8.24982 30490 ft 464 kts 173°
2026-04-14 15:13 48.43405 8.25750 30720 ft 466 kts 171°
2026-04-14 15:14 48.40198 8.26543 30930 ft 468 kts 171°
2026-04-14 15:14 48.36989 8.27321 31239 ft 467 kts 171°
2026-04-14 15:14 48.33781 8.28089 31538 ft 467 kts 171°
2026-04-14 15:14 48.30577 8.28856 31831 ft 466 kts 171°
2026-04-14 15:15 48.27366 8.29627 32109 ft 466 kts 171°
2026-04-14 15:15 48.24171 8.30393 32402 ft 466 kts 171°
2026-04-14 15:15 48.20964 8.31165 32692 ft 466 kts 171°
2026-04-14 15:15 48.17768 8.31935 32978 ft 466 kts 171°
2026-04-14 15:16 48.14568 8.32706 33175 ft 466 kts 171°
2026-04-14 15:16 48.11393 8.33477 33210 ft 458 kts 171°
2026-04-14 15:16 48.05153 8.34997 33203 ft 452 kts 171°
2026-04-14 15:17 47.98951 8.36503 33204 ft 451 kts 171°
2026-04-14 15:17 47.92792 8.37982 33199 ft 451 kts 171°
2026-04-14 15:18 47.86601 8.39467 33199 ft 450 kts 171°
2026-04-14 15:18 47.80419 8.40957 33199 ft 450 kts 171°
2026-04-14 15:19 47.74226 8.42445 33206 ft 450 kts 171°
2026-04-14 15:19 47.68036 8.43899 33208 ft 450 kts 172°
2026-04-14 15:20 47.61820 8.44949 33223 ft 449 kts 175°
2026-04-14 15:20 47.55598 8.45734 33214 ft 449 kts 175°
2026-04-14 15:21 47.49379 8.46555 33213 ft 448 kts 175°
2026-04-14 15:21 47.43181 8.47465 33216 ft 447 kts 174°
2026-04-14 15:22 47.36992 8.48393 33218 ft 447 kts 175°
2026-04-14 15:22 47.30810 8.49308 33208 ft 446 kts 175°
2026-04-14 15:23 47.24677 8.50204 33208 ft 446 kts 175°
2026-04-14 15:23 47.18509 8.51099 33208 ft 445 kts 175°
2026-04-14 15:24 47.12339 8.51993 33207 ft 445 kts 175°
2026-04-14 15:24 47.06170 8.52888 33205 ft 446 kts 175°
2026-04-14 15:25 46.99994 8.53776 33221 ft 445 kts 175°
2026-04-14 15:25 46.93824 8.54660 33207 ft 446 kts 175°
2026-04-14 15:26 46.88699 8.55404 33216 ft 445 kts 174°
2026-04-14 15:26 46.82537 8.56294 33195 ft 445 kts 175°
2026-04-14 15:27 46.78441 8.56877 32991 ft 444 kts 175°
2026-04-14 15:27 46.75380 8.57313 32484 ft 440 kts 174°
2026-04-14 15:27 46.73329 8.57606 32160 ft 436 kts 174°
2026-04-14 15:27 46.70321 8.58038 31668 ft 432 kts 174°
2026-04-14 15:28 46.67348 8.58467 31172 ft 427 kts 174°
2026-04-14 15:28 46.64409 8.58890 30684 ft 422 kts 174°
2026-04-14 15:28 46.61498 8.59307 30203 ft 418 kts 174°
2026-04-14 15:28 46.58659 8.59709 29647 ft 414 kts 174°
2026-04-14 15:29 46.55804 8.60112 29077 ft 410 kts 174°
2026-04-14 15:29 46.52972 8.60513 28493 ft 407 kts 174°
2026-04-14 15:29 46.50167 8.60911 27926 ft 404 kts 174°
2026-04-14 15:29 46.47380 8.61232 27375 ft 400 kts 179°
2026-04-14 15:30 46.44616 8.60920 26839 ft 397 kts 190°
2026-04-14 15:30 46.41963 8.59879 26296 ft 394 kts 201°
2026-04-14 15:30 46.39514 8.58159 25777 ft 391 kts 212°
2026-04-14 15:30 46.37217 8.56081 25265 ft 388 kts 212°
2026-04-14 15:31 46.34931 8.54026 24770 ft 386 kts 212°
2026-04-14 15:31 46.32651 8.51988 24291 ft 383 kts 212°
2026-04-14 15:31 46.30377 8.50012 23817 ft 380 kts 207°
2026-04-14 15:31 46.27939 8.48575 23319 ft 377 kts 196°
2026-04-14 15:32 46.25372 8.47863 22761 ft 375 kts 185°
2026-04-14 15:32 46.22774 8.47877 22210 ft 373 kts 174°
2026-04-14 15:32 46.20197 8.48259 21653 ft 371 kts 174°
2026-04-14 15:32 46.17637 8.48629 21112 ft 369 kts 174°
2026-04-14 15:33 46.15089 8.48990 20580 ft 367 kts 174°
2026-04-14 15:33 46.12559 8.49350 20056 ft 365 kts 173°
2026-04-14 15:33 46.10084 8.50080 19562 ft 362 kts 162°
2026-04-14 15:33 46.07724 8.51314 19061 ft 360 kts 159°
2026-04-14 15:34 46.05415 8.52562 18588 ft 358 kts 159°
2026-04-14 15:34 46.03091 8.53814 18086 ft 356 kts 159°
2026-04-14 15:34 46.00742 8.55075 17563 ft 354 kts 159°
2026-04-14 15:34 45.98474 8.56294 17023 ft 351 kts 159°
2026-04-14 15:35 45.96192 8.57519 16516 ft 348 kts 159°
2026-04-14 15:35 45.93903 8.58744 16077 ft 344 kts 159°
2026-04-14 15:35 45.91710 8.59916 15943 ft 329 kts 159°
2026-04-14 15:35 45.89687 8.61238 15527 ft 320 kts 148°
2026-04-14 15:36 45.87901 8.63095 14985 ft 315 kts 140°
2026-04-14 15:36 45.86207 8.65082 14431 ft 313 kts 140°
2026-04-14 15:36 45.84522 8.67047 13900 ft 311 kts 140°
2026-04-14 15:36 45.82850 8.68987 13339 ft 308 kts 140°
2026-04-14 15:37 45.81186 8.70908 12776 ft 306 kts 140°
2026-04-14 15:37 45.79537 8.72813 12241 ft 303 kts 140°
2026-04-14 15:37 45.77911 8.74692 12009 ft 301 kts 140°
2026-04-14 15:37 45.76242 8.76516 11968 ft 302 kts 146°
2026-04-14 15:38 45.74422 8.77984 11466 ft 300 kts 150°
2026-04-14 15:38 45.72584 8.79396 10936 ft 299 kts 150°
2026-04-14 15:38 45.70753 8.80799 10549 ft 297 kts 150°
2026-04-14 15:38 45.68937 8.82190 10177 ft 295 kts 150°
2026-04-14 15:39 45.67126 8.83576 9801 ft 293 kts 150°
2026-04-14 15:39 45.65362 8.84926 9530 ft 287 kts 150°
2026-04-14 15:39 45.63640 8.86245 9400 ft 276 kts 150°
2026-04-14 15:39 45.61952 8.87458 9155 ft 270 kts 157°
2026-04-14 15:40 45.60150 8.88137 8995 ft 269 kts 168°
2026-04-14 15:40 45.58310 8.88626 8999 ft 269 kts 168°
2026-04-14 15:40 45.56465 8.89124 9003 ft 270 kts 168°
2026-04-14 15:40 45.54619 8.89627 9002 ft 270 kts 168°
2026-04-14 15:41 45.52774 8.90132 8989 ft 270 kts 168°
2026-04-14 15:41 45.50939 8.90631 8680 ft 268 kts 168°
2026-04-14 15:41 45.49121 8.91126 8425 ft 259 kts 168°
2026-04-14 15:41 45.47362 8.91603 7609 ft 264 kts 168°
2026-04-14 15:42 45.45513 8.92106 6614 ft 276 kts 168°
2026-04-14 15:42 45.43600 8.92625 5587 ft 284 kts 169°
2026-04-14 15:42 45.41613 8.92610 4594 ft 289 kts 193°
2026-04-14 15:42 45.39836 8.91447 4163 ft 274 kts 216°
2026-04-14 15:43 45.38600 8.89566 4024 ft 249 kts 238°
2026-04-14 15:43 45.37979 8.87391 4005 ft 233 kts 259°
2026-04-14 15:43 45.37902 8.85165 4004 ft 222 kts 277°
2026-04-14 15:43 45.38313 8.83068 3997 ft 219 kts 296°
2026-04-14 15:44 45.39151 8.81275 4005 ft 218 kts 315°
2026-04-14 15:44 45.40297 8.79886 4009 ft 217 kts 325°
2026-04-14 15:44 45.41612 8.78913 3995 ft 212 kts 354°
2026-04-14 15:44 45.43083 8.78804 4007 ft 214 kts 355°
2026-04-14 15:45 45.44537 8.78458 3998 ft 215 kts 350°
2026-04-14 15:45 45.46005 8.78042 3814 ft 215 kts 350°
2026-04-14 15:45 45.47469 8.77634 3554 ft 214 kts 350°
2026-04-14 15:45 45.48908 8.77238 3301 ft 206 kts 349°
2026-04-14 15:46 45.50296 8.76856 3000 ft 200 kts 349°
2026-04-14 15:46 45.51644 8.76486 2749 ft 194 kts 350°
2026-04-14 15:46 45.52925 8.76133 2509 ft 181 kts 349°
2026-04-14 15:46 45.54110 8.75807 2264 ft 167 kts 349°
2026-04-14 15:47 45.55216 8.75502 2048 ft 158 kts 350°
2026-04-14 15:47 45.56278 8.75209 1842 ft 154 kts 351°
2026-04-14 15:47 45.57327 8.74912 1571 ft 154 kts 349°
2026-04-14 15:47 45.58380 8.74646 1369 ft 155 kts 348°
2026-04-14 15:48 45.59421 8.74338 1168 ft 152 kts 345°
2026-04-14 15:48 45.60469 8.74049 986 ft 153 kts 348°
2026-04-14 15:48 45.61509 8.73772 763 ft 152 kts 349°
2026-04-14 15:48 45.62485 8.73493 723 ft 130 kts 351°
2026-04-14 15:49 45.63230 8.73295 733 ft 85 kts 349°
2026-04-14 15:49 45.63680 8.73175 743 ft 54 kts 350°
2026-04-14 15:49 45.63938 8.73117 746 ft 31 kts 352°
2026-04-14 15:49 45.64145 8.73063 750 ft 30 kts 338°
2026-04-14 15:50 45.64303 8.72950 753 ft 12 kts 283°
2026-04-14 15:50 45.64331 8.72845 752 ft 11 kts 302°
2026-04-14 15:50 45.64361 8.72787 758 ft 0 kts 306°
2026-04-14 15:50 45.64363 8.72783 758 ft 1 kts 306°
2026-04-14 15:51 45.64364 8.72782 758 ft 0 kts 306°
2026-04-14 15:51 45.64367 8.72774 758 ft 3 kts 306°
2026-04-14 15:51 45.64380 8.72714 759 ft 9 kts 261°
2026-04-14 15:51 45.64317 8.72679 757 ft 13 kts 166°
2026-04-14 15:52 45.64215 8.72712 754 ft 17 kts 168°
2026-04-14 15:52 45.64080 8.72748 751 ft 22 kts 171°
2026-04-14 15:52 45.63930 8.72769 751 ft 16 kts 204°
2026-04-14 15:52 45.63925 8.72685 749 ft 1 kts 295°
2026-04-14 15:53 45.63933 8.72664 751 ft 7 kts 298°
2026-04-14 15:53 45.63936 8.72587 750 ft 6 kts 206°
2026-04-14 15:53 45.63865 8.72586 752 ft 19 kts 171°
2026-04-14 15:53 45.63706 8.72629 749 ft 25 kts 168°
2026-04-14 15:54 45.63441 8.72698 744 ft 19 kts 183°
2026-04-14 15:54 45.63326 8.72606 743 ft 20 kts 215°
2026-04-14 15:54 45.63208 8.72490 743 ft 22 kts 213°
2026-04-14 15:55 45.63080 8.72368 742 ft 22 kts 223°
2026-04-14 15:55 45.63024 8.72163 741 ft 22 kts 260°
2026-04-14 15:55 45.63003 8.72006 740 ft 15 kts 258°
2026-04-14 15:55 45.62923 8.71950 738 ft 16 kts 166°
2026-04-14 15:56 45.62783 8.71994 734 ft 24 kts 169°
2026-04-14 15:56 45.62672 8.71958 733 ft 15 kts 253°
2026-04-14 15:56 45.62649 8.71790 733 ft 19 kts 260°
2026-04-14 15:56 45.62622 8.71602 733 ft 15 kts 256°
2026-04-14 15:57 45.62597 8.71510 732 ft 7 kts 221°
2026-04-14 15:57 45.62553 8.71522 731 ft 8 kts 168°
2026-04-14 15:57 45.62526 8.71530 731 ft 0 kts 169°